Wind_Speed
31 32 33 32 31 31 29 28 28 29 27 25 32 34 36 36 39 47 51 49 34 30 35 37 42 35 27 27 30 33 42 50 47 40 44 44 39 37 38 38 36 35 35
28 21 19 22 22 23 25 26 27 27 29 31 29 32 32 32 30 37 42 38 49 46 38 31 34 38 40 28 30 24 21 33 46 47 36 42 40 39 39 35 35 34 36
18 15 13 12 13 16 20 24 28 30 30 30 31 29 32 33 32 32 37 44 42 46 44 46 43 36 33 43 37 35 30 27 26 35 43 46 40 41 40 40 39 39 39
20 13 10 11 13 16 18 21 24 25 27 27 27 30 31 32 38 39 36 38 46 48 50 50 50 42 39 41 44 33 34 30 28 27 36 45 47 42 40 41 43 41 41
14 11 11 12 13 13 15 17 19 21 24 26 27 28 30 34 37 41 41 43 44 45 40 48 44 43 42 39 43 42 46 42 42 34 39 33 49 56 47 43 41 39 39
16 8 12 14 14 14 19 20 20 21 23 24 25 28 33 39 42 43 45 45 46 47 45 45 39 44 44 41 49 43 46 46 44 45 41 41 27 35 55 52 46 49 44
7 10 13 14 15 20 22 24 25 26 26 28 29 32 36 37 36 37 48 46 49 47 51 48 46 45 46 43 47 49 46 41 46 40 49 38 39 26 36 52 52 42 37
11 14 15 18 22 24 25 26 29 31 29 30 31 34 37 33 32 35 42 50 48 41 48 47 52 47 41 44 42 46 51 45 47 44 37 33 29 28 38 41 41 37 41
14 18 24 26 26 25 28 29 32 31 30 31 33 34 36 32 27 27 36 49 50 53 46 46 44 45 46 45 50 51 49 47 39 43 43 37 36 39 44 44 46 42 45
21 25 28 27 28 28 28 30 30 29 30 31 32 34 31 27 20 22 28 46 53 42 38 38 42 45 45 43 48 49 45 47 38 44 54 42 44 43 38 32 33 40 46
19 22 25 28 29 30 29 28 27 28 29 32 32 31 29 24 19 19 22 34 38 42 32 36 35 38 41 44 42 37 42 48 39 45 51 46 44 43 37 38 37 42 39
17 20 20 23 25 27 27 27 28 28 29 30 30 30 27 21 18 18 19 29 35 37 35 34 37 34 34 34 39 40 35 38 39 50 53 49 49 44 44 45 46 40 37
19 21 22 25 27 26 28 30 30 30 30 30 29 28 25 18 16 17 21 24 33 33 28 29 30 33 29 33 36 39 36 37 39 57 53 51 48 45 51 50 45 46 42
21 23 25 28 29 30 31 34 35 33 32 28 24 23 21 17 16 17 21 26 32 34 36 32 30 26 25 27 27 21 25 29 39 55 53 52 47 47 48 46 49 48 45
24 26 29 31 33 33 33 35 36 31 26 21 20 20 18 16 15 14 13 16 24 31 31 29 27 26 25 21 26 26 27 32 47 49 49 43 41 49 51 49 43 39 34
28 31 33 36 36 35 36 34 35 29 19 19 17 17 16 15 16 15 13 12 16 16 23 27 27 26 25 28 30 28 32 35 41 44 41 40 39 44 39 40 35 34 33
31 32 34 36 36 35 34 33 33 25 18 17 17 14 14 14 13 16 16 15 14 14 15 21 23 27 26 31 31 35 40 42 42 40 41 42 39 39 45 38 37 38 36
31 32 35 36 36 35 33 31 30 25 18 16 17 13 13 13 14 13 14 16 17 20 17 19 24 26 29 30 31 34 43 40 41 41 44 44 43 43 41 40 39 34 36
30 31 32 32 33 33 32 31 28 23 18 16 17 14 11 12 13 14 15 16 19 24 25 25 26 26 27 28 29 33 37 42 45 48 49 46 44 42 38 36 36 35 30
27 28 30 31 32 32 30 30 28 23 17 16 16 14 11 9 8 13 16 17 19 20 24 25 27 28 29 31 37 39 39 45 48 49 47 44 38 35 35 36 34 31 30
28 28 28 29 29 31 31 28 28 24 17 15 16 15 12 8 6 6 14 20 21 21 21 22 25 29 35 37 41 40 40 39 39 39 37 34 34 36 37 33 31 30 31
30 28 27 27 28 29 30 27 27 23 18 15 16 16 14 12 8 7 8 13 21 24 24 25 30 33 36 36 36 36 36 39 38 33 33 35 37 36 33 31 32 32 33
30 29 27 27 27 28 28 27 25 23 20 15 17 18 16 15 12 10 10 12 16 21 25 28 29 31 34 35 35 35 37 34 32 33 34 34 33 33 32 32 31 32 32
31 31 30 28 27 27 26 27 24 23 20 18 15 19 20 18 17 15 15 16 18 19 21 26 28 31 32 33 36 38 35 35 33 32 33 32 32 32 32 31 32 31 29
31 31 30 29 28 29 26 25 24 23 21 18 18 18 23 24 21 21 21 20 21 22 24 27 29 31 33 34 33 33 33 34 35 35 35 34 32 30 30 30 29 29 29
35 33 31 29 28 29 28 24 23 21 21 19 18 18 19 25 26 25 25 25 26 26 27 27 27 28 29 31 33 33 33 33 34 35 35 34 32 32 32 31 31 30 30
Wind_Direction
278 272 263 258 261 266 269 271 276 284 290 284 264 260 260 257 254 247 246 251 233 229 234 235 234 227 234 249 244 238 239 236 237 239 228 225 218 215 217 221 220 218 223
263 255 262 264 266 267 270 277 278 283 286 284 283 262 257 261 265 250 245 249 244 254 228 236 244 233 229 228 227 229 241 244 240 231 238 221 216 213 216 218 221 216 226
227 227 235 244 257 269 279 283 286 289 285 282 275 275 262 255 253 253 246 241 244 243 241 243 248 240 241 232 228 231 229 228 249 235 227 209 207 214 214 212 214 221 223
218 233 242 264 278 288 295 292 290 283 281 278 279 272 267 266 256 250 244 244 242 244 235 241 238 238 229 239 240 224 222 226 232 225 222 222 208 212 215 213 214 216 218
232 250 270 289 295 303 315 313 306 298 288 282 278 273 268 267 264 262 253 241 244 248 241 234 226 235 227 228 237 239 236 225 232 219 220 229 226 220 209 215 213 217 216
235 279 296 300 313 325 330 326 318 313 303 296 284 277 283 281 273 258 248 245 238 240 240 240 232 232 229 234 230 231 236 229 224 223 230 228 237 240 223 218 217 215 211
271 293 305 314 317 319 323 326 326 320 315 311 299 288 294 288 275 260 241 229 239 236 231 233 233 232 229 230 227 230 222 236 240 240 238 235 231 232 234 226 222 219 231
286 304 309 314 316 316 317 312 320 322 317 314 306 300 300 297 278 256 240 229 227 239 239 231 231 229 229 233 237 228 223 219 231 231 228 235 229 242 234 233 219 217 223
293 300 307 306 307 307 310 313 313 317 318 315 311 310 310 304 278 258 240 230 226 223 231 233 227 230 231 228 229 238 231 234 230 233 229 226 232 227 224 220 218 223 221
303 305 309 310 313 313 308 307 312 317 318 320 319 316 315 301 271 263 252 225 221 223 230 229 227 232 239 229 235 240 229 238 239 228 220 220 215 220 224 224 221 224 204
328 323 320 319 315 315 316 315 315 312 317 322 323 319 317 301 280 280 242 220 210 220 223 225 221 228 241 233 229 232 234 241 243 232 215 204 206 203 206 211 208 204 203
339 341 346 343 336 332 330 325 319 317 318 321 323 322 318 301 276 252 237 216 213 217 226 232 231 231 226 230 230 232 229 224 227 218 205 194 194 199 197 192 196 191 189
351 352 350 351 349 341 338 332 322 314 314 318 323 321 314 297 274 247 230 224 220 227 226 230 223 223 213 221 220 221 221 218 226 202 195 196 200 205 197 195 190 183 187
347 347 347 346 343 341 338 334 328 317 306 306 316 315 303 288 262 234 224 220 216 224 226 224 221 211 208 208 205 218 205 216 211 192 191 194 198 200 193 192 191 196 195
342 344 343 338 334 333 334 335 334 322 304 306 312 310 295 267 247 216 193 202 207 207 210 205 196 191 183 179 178 185 182 191 188 193 193 196 200 198 197 197 201 200 199
337 336 334 331 327 330 330 333 334 331 306 304 308 307 292 265 242 225 215 188 182 184 196 197 203 197 193 190 187 188 191 190 187 189 194 197 202 202 200 194 187 191 199
327 325 328 331 331 329 329 330 332 328 314 304 307 304 292 259 245 228 219 218 208 199 193 194 191 184 179 185 188 184 177 178 184 190 192 200 202 195 191 186 186 194 197
322 324 326 331 333 331 329 330 330 324 319 304 308 299 293 269 237 223 207 198 194 187 172 176 176 175 173 172 173 180 180 180 185 194 198 199 198 197 187 189 197 203 201
320 323 327 331 332 332 331 331 331 319 311 308 306 295 291 279 240 212 194 186 181 185 183 192 197 196 194 193 194 197 199 198 195 188 191 196 193 189 192 191 197 197 208
317 319 321 325 329 332 333 332 329 320 305 297 294 293 280 292 271 223 201 189 183 181 181 181 188 193 195 193 193 195 198 198 197 197 198 194 190 185 191 195 199 208 208
309 312 314 317 321 328 332 331 330 325 296 291 285 287 271 265 255 237 213 203 199 195 192 185 183 186 188 191 192 198 202 205 204 195 187 184 188 191 191 199 203 207 209
300 303 304 307 314 323 327 327 328 325 310 279 274 274 270 247 234 227 212 200 201 197 192 198 196 195 197 203 206 207 205 196 188 184 187 189 189 194 200 203 207 209 213
292 294 295 297 302 311 318 324 324 323 318 299 268 262 266 252 232 222 209 207 198 193 190 191 195 198 202 203 203 200 195 187 186 190 191 194 196 200 205 210 212 213 215
289 289 289 289 291 296 306 318 319 322 317 313 292 259 255 254 235 221 216 209 210 204 199 192 191 190 195 198 198 196 187 190 195 195 196 198 203 208 210 210 210 212 214
286 286 285 285 282 284 292 302 315 316 318 311 306 278 251 246 240 223 212 210 210 209 209 198 192 194 192 193 195 196 197 199 199 198 199 203 207 209 211 212 214 215 219
285 284 282 281 277 277 282 288 302 308 315 311 301 292 259 242 238 226 214 210 209 209 208 208 202 198 201 201 201 200 202 204 204 203 205 208 208 207 209 212 215 219 219
Height
2973 2972 2970 2970 2970 2969 2971 2970 2971 2972 2966 2964 2968 2971 2973 2973 2971 2978 2982 2988 2990 2995 2999 3004 3006 3010 3014 3017 3019 3022 3027 3037 3043 3049 3056 3058 3067 3072 3077 3081 3087 3094 3096
2962 2962 2963 2960 2964 2965 2963 2962 2962 2961 2954 2956 2958 2960 2961 2961 2962 2965 2969 2973 2978 2985 2991 2993 2993 2999 3004 3009 3013 3016 3018 3023 3033 3041 3044 3050 3057 3063 3067 3073 3079 3085 3089
2955 2956 2957 2956 2959 2958 2954 2955 2953 2949 2949 2949 2949 2949 2951 2952 2953 2957 2959 2961 2965 2970 2974 2979 2987 2989 2992 2997 3004 3006 3011 3016 3021 3027 3034 3039 3046 3052 3056 3062 3070 3075 3079
2950 2951 2952 2952 2952 2950 2948 2946 2944 2943 2942 2942 2941 2941 2941 2942 2943 2945 2948 2950 2952 2955 2961 2968 2973 2977 2982 2987 2993 2996 3003 3009 3013 3018 3025 3029 3035 3042 3049 3056 3059 3065 3069
2947 2947 2947 2947 2945 2944 2942 2940 2938 2937 2935 2934 2933 2932 2932 2932 2932 2934 2935 2938 2941 2943 2947 2951 2958 2966 2970 2977 2982 2987 2990 2997 3002 3010 3013 3019 3023 3028 3035 3044 3052 3058 3063
2942 2942 2942 2942 2940 2938 2936 2934 2932 2929 2928 2925 2923 2922 2922 2920 2918 2919 2921 2925 2929 2933 2936 2941 2944 2954 2959 2964 2971 2977 2981 2988 2992 2998 3004 3009 3012 3019 3026 3033 3041 3045 3052
2938 2938 2938 2937 2935 2932 2929 2926 2923 2920 2917 2914 2911 2909 2907 2903 2901 2901 2904 2909 2914 2912 2923 2929 2936 2943 2948 2950 2958 2967 2973 2978 2985 2992 2995 3000 3005 3010 3018 3023 3030 3039 3046
2936 2936 2934 2932 2930 2927 2923 2920 2917 2914 2909 2905 2901 2897 2892 2889 2884 2884 2887 2894 2900 2905 2909 2916 2925 2931 2936 2940 2945 2953 2961 2968 2977 2980 2986 2994 2999 3004 3010 3020 3027 3032 3037
2933 2932 2929 2927 2924 2921 2917 2914 2910 2907 2903 2898 2892 2886 2878 2874 2871 2871 2873 2877 2884 2891 2897 2902 2912 2917 2925 2931 2936 2939 2948 2954 2961 2970 2978 2983 2989 2996 3000 3006 3012 3021 3026
2929 2926 2922 2919 2916 2913 2910 2906 2903 2898 2895 2890 2884 2877 2869 2865 2863 2861 2859 2862 2870 2880 2887 2891 2900 2905 2911 2918 2923 2928 2935 2941 2946 2955 2962 2971 2980 2988 2996 3004 3010 3015 3021
2924 2921 2918 2913 2910 2907 2903 2898 2895 2892 2887 2882 2877 2870 2863 2858 2855 2854 2853 2856 2863 2873 2878 2884 2890 2896 2900 2906 2912 2917 2924 2932 2937 2944 2954 2961 2971 2980 2987 2995 3002 3009 3017
2922 2918 2915 2910 2905 2901 2896 2892 2888 2884 2880 2875 2870 2863 2857 2853 2851 2850 2851 2854 2861 2866 2871 2877 2883 2889 2892 2897 2900 2908 2913 2920 2927 2935 2947 2953 2963 2970 2979 2987 2995 3004 3014
2918 2915 2911 2907 2902 2897 2892 2888 2883 2878 2873 2868 2863 2858 2853 2849 2847 2846 2848 2851 2855 2860 2865 2870 2874 2879 2884 2888 2891 2898 2903 2909 2917 2927 2937 2947 2957 2964 2974 2980 2992 3000 3006
2916 2912 2907 2903 2899 2894 2889 2883 2877 2870 2865 2861 2857 2853 2849 2846 2844 2843 2844 2846 2851 2855 2859 2863 2866 2869 2873 2879 2884 2888 2894 2901 2911 2922 2932 2942 2949 2960 2969 2980 2986 2993 3001
2911 2907 2902 2899 2895 2890 2885 2878 2871 2863 2858 2855 2851 2848 2845 2844 2842 2841 2841 2843 2846 2849 2853 2857 2860 2864 2867 2870 2875 2883 2890 2900 2911 2922 2932 2940 2948 2958 2965 2974 2981 2991 3001
2906 2902 2899 2894 2890 2884 2877 2873 2866 2858 2854 2851 2848 2844 2841 2840 2840 2839 2839 2841 2843 2846 2849 2852 2857 2861 2865 2870 2877 2883 2893 2902 2912 2922 2930 2938 2944 2952 2963 2971 2978 2988 2999
2901 2897 2893 2889 2882 2877 2872 2866 2861 2856 2851 2849 2845 2841 2839 2838 2838 2838 2838 2840 2843 2846 2848 2851 2854 2859 2864 2869 2876 2884 2893 2904 2913 2921 2928 2935 2942 2951 2958 2967 2974 2983 2990
2897 2893 2888 2883 2877 2872 2867 2862 2857 2852 2849 2846 2843 2840 2837 2836 2836 2837 2837 2839 2841 2844 2848 2852 2856 2861 2865 2872 2878 2886 2894 2902 2911 2919 2926 2932 2938 2947 2953 2961 2970 2977 2984
2891 2887 2883 2879 2873 2867 2863 2858 2853 2849 2846 2844 2841 2839 2836 2835 2835 2836 2837 2839 2841 2844 2848 2853 2859 2864 2869 2875 2881 2888 2894 2901 2907 2914 2921 2928 2936 2943 2950 2959 2967 2974 2980
2886 2882 2878 2873 2869 2865 2859 2855 2850 2846 2843 2841 2839 2837 2835 2835 2835 2836 2837 2839 2842 2844 2848 2851 2857 2862 2867 2873 2879 2885 2891 2898 2904 2911 2918 2926 2932 2940 2949 2957 2963 2969 2975
2878 2876 2873 2869 2865 2861 2855 2850 2846 2842 2840 2837 2836 2835 2834 2833 2834 2835 2836 2838 2841 2844 2848 2852 2857 2862 2867 2873 2878 2884 2890 2897 2904 2911 2917 2923 2931 2938 2946 2952 2958 2964 2969
2870 2868 2866 2863 2860 2856 2852 2847 2843 2839 2835 2833 2832 2832 2831 2831 2832 2833 2835 2836 2838 2842 2845 2850 2856 2861 2867 2872 2877 2882 2889 2895 2901 2907 2914 2922 2928 2935 2941 2947 2952 2957 2963
2861 2859 2858 2856 2854 2851 2848 2843 2839 2835 2832 2829 2828 2827 2828 2829 2830 2831 2833 2835 2837 2840 2843 2847 2852 2858 2863 2868 2874 2881 2887 2892 2900 2907 2913 2918 2924 2930 2936 2941 2947 2952 2957
2852 2850 2849 2848 2846 2845 2842 2839 2835 2831 2828 2825 2824 2823 2823 2825 2827 2829 2831 2833 2836 2839 2842 2845 2849 2854 2860 2866 2872 2877 2882 2889 2897 2903 2909 2915 2921 2926 2931 2936 2942 2947 2951
2842 2841 2840 2839 2838 2837 2835 2834 2830 2826 2823 2820 2819 2818 2818 2820 2822 2825 2827 2830 2833 2836 2841 2844 2848 2853 2857 2863 2869 2875 2881 2886 2892 2898 2904 2909 2915 2920 2926 2931 2936 2940 2944
2831 2830 2829 2829 2828 2828 2827 2826 2825 2821 2818 2815 2814 2813 2812 2813 2816 2820 2823 2826 2829 2832 2836 2841 2845 2850 2855 2860 2865 2871 2877 2883 2888 2893 2899 2904 2908 2913 2919 2924 2929 2933 2937